Flag for Vanuatu Weather past 2 weeks in Port Vila, Vanuatu

Now
72 °F

Passing clouds.


Feels Like: 71 °F
Forecast: 74 / 77 °F
Wind: No wind

Location: Bauerfield Efate

Current Time: Sep 22, 2014 at 8:22:21 PM

Latest Report: Sep 22, 2014 at 7:00 PM


Visibility: N/A

Pressure: 30.04 "Hg

Humidity: 83%

Dew point: 66 °F

Location of Port VilaLocation

Historic Weather in Port Vila — Graph

°F

Port Vila temperature yesterday

Maximum temperature yesterday: 79 °F (at 10:00 AM)
Minimum temperature yesterday: 72 °F (at 11:00 PM)
Average temperature yesterday: 76 °F

Past Weeks' High & Low Weather Summary

 TemperatureHumidityPressure
High86 °F (Sep 17, 1:00 PM)100% (Sep 9, 8:00 AM)30.04 "Hg (Sep 9, 8:00 AM)
Low64 °F (Sep 11, 5:00 AM)55% (Sep 11, 2:00 AM)29.83 "Hg (Sep 14, 2:00 PM)
Average75 °F83%29.95 "Hg
* Reported Sep 7 7:00 PM — Sep 22 7:00 PM, Port Vila, Weather by CustomWeather, © 2014

Note: Actual official high and low records may vary slightly from our data, if they occured in-between our weather recording intervals... More about our weather records

Advertising

Port Vila weather history for previous 24 hours

 ConditionsComfort  
Time TempWeatherWind HumidityBarometerVisibility
7:00 PM
Sep 22
72 °FPassing clouds.No wind83%30.04 "HgN/A
6:00 PM72 °FPassing clouds.3 mph78%30.01 "HgN/A
5:00 PM75 °FBroken clouds.8 mph69%30.01 "HgN/A
4:00 PM77 °FScattered clouds.15 mph65%29.98 "HgN/A
3:00 PM77 °FMore clouds than sun.16 mph69%29.98 "HgN/A
2:00 PM77 °FMore clouds than sun.16 mph69%29.98 "HgN/A
1:00 PM77 °FMore clouds than sun.16 mph69%30.01 "HgN/A
12:00 PM77 °FMore clouds than sun.16 mph69%30.01 "HgN/A
11:00 AM77 °FMore clouds than sun.15 mph74%30.04 "HgN/A
10:00 AM79 °FMore clouds than sun.12 mph74%30.04 "HgN/A
9:00 AM79 °FMore clouds than sun.12 mph74%30.04 "HgN/A
8:00 AM73 °FMore clouds than sun.7 mph89%29.92 "HgN/A
7:00 AM73 °FMore clouds than sun.10 mph83%30.04 "HgN/A
5:00 AM70 °FMostly cloudy.No wind94%29.98 "HgN/A
4:00 AM70 °FPartly cloudy.2 mph94%29.98 "HgN/A
2:00 AM66 °FPassing clouds.2 mph94%29.98 "HgN/A
1:00 AM68 °FPassing clouds.2 mph88%30.01 "HgN/A
12:00 AM72 °FPassing clouds.2 mph78%30.04 "HgN/A
11:00 PM
Sep 21
72 °FMild.N/A78%30.04 "HgN/A
10:00 PM73 °FPartly cloudy.7 mph74%30.04 "HgN/A
9:00 PMN/A5 mphN/AN/AN/A
8:00 PMN/AOvercast.8 mphN/AN/AN/A
Weather by CustomWeather, © 2014

See weather overviewHow to use our weather pages